This demonstration page uses our WeatherBlox Daily Observations layout. Learn more.

38.89511, -77.03637

Hourly Observations for September 16, 2016

Temp ( °F °C ) Dew Point ( °F °C ) Humidity (%) Winds ( mph kmh ) Pressure ( in mb ) Visibility ( mi km ) Precip ( " mm )
12:52 am 00:52 Partly Cloudy 67 19.4 60 15.6 79 79 SSE 3 6 30.26 1025 10 16.0934 0 0
1:52 am 01:52 Mostly Cloudy 67 19.4 60 15.6 79 79 E 5 7 30.25 1024 10 16.0934 0 0
2:52 am 02:52 Mostly Cloudy 67 19.4 60 15.6 79 79 E 3 6 30.25 1025 10 16.0934 0 0
3:52 am 03:52 Mostly Cloudy 67 19.4 60 15.6 79 79 NE 3 6 30.24 1024 10 16.0934 0 0
4:52 am 04:52 Mostly Cloudy 67 19.4 58 14.4 73 73 ENE 7 11 30.25 1024 10 16.0934 0 0
5:52 am 05:52 Cloudy 67 19.4 58 14.4 73 73 ENE 7 11 30.26 1025 10 16.0934 0 0
6:52 am 06:52 Mostly Cloudy 67 19.4 59 15 76 76 ENE 6 9 30.26 1025 10 16.0934 0 0
7:52 am 07:52 Mostly Cloudy 67 19.4 59 15 76 76 ENE 6 9 30.29 1026 10 16.0934 0 0
8:52 am 08:52 Mostly Cloudy 68 20 59 15 73 73 E 6 9 30.29 1026 10 16.0934 0 0
9:52 am 09:52 Mostly Cloudy 69 20.6 59 15 70 70 E 8 13 30.29 1026 10 16.0934 0 0
10:52 am 10:52 Partly Cloudy 72 22.2 58 14.4 61 61 ENE 5 7 30.29 1026 10 16.0934 0 0
11:52 am 11:52 Partly Cloudy 75 23.9 58 14.4 55 55 ESE 5 7 30.29 1026 10 16.0934 0 0
12:18 pm 12:18 Mostly Cloudy 75 24 57 14 54 54 NNE 7 11 30.3 1026 10 16.0934 0 0
12:52 pm 12:52 Cloudy 76 24.4 56 13.3 50 50 NE 13 20 30.28 1026 10 16.0934 0 0
1:52 pm 13:52 Cloudy 76 24.4 55 12.8 48 48 SE 7 11 30.26 1025 10 16.0934 0 0
2:52 pm 14:52 Cloudy 77 25 54 12.2 45 45 ESE 7 11 30.24 1024 10 16.0934 0 0
3:52 pm 15:52 Partly Cloudy 79 26.1 53 11.7 41 41 SSE 9 15 30.22 1023 10 16.0934 0 0
4:19 pm 16:19 Partly Cloudy 79 26.1 55 12.8 44 44 E 6 9 30.21 1023 10 16.0934 0 0
4:52 pm 16:52 Mostly Cloudy 78 25.6 55 12.8 45 45 ESE 8 13 30.21 1023 10 16.0934 0 0
5:52 pm 17:52 Cloudy 76 24.4 58 14.4 54 54 SE 8 13 30.22 1023 10 16.0934 0 0
6:52 pm 18:52 Cloudy 74 23.3 58 14.4 57 57 SE 7 11 30.22 1024 10 16.0934 0 0
7:52 pm 19:52 Cloudy 74 23.3 59 15 60 60 SE 7 11 30.22 1023 10 16.0934 0 0
8:52 pm 20:52 Cloudy 74 23.3 59 15 60 60 ESE 6 9 30.24 1024 10 16.0934 0 0
9:52 pm 21:52 Cloudy 74 23.3 60 15.6 62 62 SE 6 9 30.24 1024 10 16.0934 0 0
10:52 pm 22:52 Cloudy 72 22.2 62 16.7 71 71 SE 9 15 30.25 1024 10 16.0934 0 0
11:52 pm 23:52 Cloudy 71 21.7 62 16.7 73 73 SE 9 15 30.25 1025 10 16.0934 0 0

Powered by AerisWeather